Date String (YYYY-MM-DD hh:mm:ss) UTC,Instrument flags,absolute air pressure of the measurement (hPa),sample flow rate (lpm),inlet stack bypass flow (lpm),air temperature of the measurement (°C),ambient temperature measured by the external sensor (°C),aerosol sample conditioner tube jacket temperature (°C),OPC LED temperature (°C),internal box temperature (°C),relative humidity of the measurement (%),span deviation,mass concentration of particles derived from Lorenz-Mie calculation of OPC scattering (μg/m³),mass concentration of particles derived from Lorenz-Mie calculation of OPC scattering (μg/m³),mass concentration of particles derived from Lorenz-Mie calculation of OPC scattering (μg/m³)
DateTimeUTC,F1_M11,P_M11,Q1_M11,Q2_M11,T1_M11,T2_M11,T3_M11,T4_M11,T5_M11,U1_M11,ZSPAN_M11,X2_M11,X0_M11,X1_M11
2023-09-23 18:00:00,SystemResetWarning,0829.2,5.01,000.00,029.0,028.0,000.0,037.1,030.7,11.5,0003.4,0004.72,0017.03,0003.54
2023-09-23 18:01:00,SystemResetWarning,0829.2,4.99,000.00,029.0,028.0,000.0,037.1,030.7,11.7,0003.5,0004.69,0017.04,0003.53
2023-09-23 18:02:00,SystemResetWarning,0829.2,5.00,000.00,029.0,028.1,000.0,037.2,030.8,11.4,0003.7,0004.70,0017.18,0003.53
2023-09-23 18:03:00,SystemResetWarning,0829.2,4.99,000.00,029.1,027.7,000.0,037.2,030.7,10.9,0003.8,0004.66,0016.61,0003.52
2023-09-23 18:04:00,SystemResetWarning,0829.2,5.00,000.00,029.0,025.8,000.0,037.1,030.3,11.3,0003.9,0004.63,0015.57,0003.52
2023-09-23 18:05:00,SystemResetWarning,0829.2,5.00,000.00,028.9,024.6,000.0,037.0,030.1,11.2,0000.8,0004.60,0015.14,0003.51
2023-09-23 18:06:00,SystemResetWarning,0829.2,5.01,000.00,028.8,024.7,000.0,037.0,030.0,11.4,0000.0,0004.58,0015.17,0003.49
2023-09-23 18:07:00,SystemResetWarning,0829.2,5.01,000.00,028.6,025.0,000.0,037.0,029.9,11.7,0001.9,0004.61,0014.49,0003.49
2023-09-23 18:08:00,SystemResetWarning,0829.2,5.00,000.00,028.6,025.4,000.0,037.0,029.9,11.9,0000.0,0004.63,0013.57,0003.49
2023-09-23 18:09:00,SystemResetWarning,0829.1,5.00,000.00,028.6,025.8,000.0,037.0,030.0,11.8,0000.0,0004.54,0013.23,0003.48
2023-09-23 18:10:00,SystemResetWarning,0829.1,5.00,000.00,028.6,026.1,000.0,037.0,030.1,11.5,0000.0,0004.43,0013.02,0003.46
2023-09-23 18:11:00,SystemResetWarning,0829.1,4.99,000.00,028.6,026.5,000.0,037.0,030.1,11.5,0000.0,0004.40,0013.32,0003.45
2023-09-23 18:12:00,SystemResetWarning,0829.2,4.99,000.00,028.6,026.7,000.0,037.0,030.2,11.4,0000.0,0004.37,0013.28,0003.45
2023-09-23 18:13:00,SystemResetWarning,0829.2,5.00,000.00,028.6,027.0,000.0,037.0,030.3,11.4,0000.0,0004.34,0012.16,0003.46
2023-09-23 18:14:00,SystemResetWarning,0829.1,5.01,000.00,028.7,027.2,000.0,037.0,030.3,11.6,0000.0,0004.34,0012.40,0003.46
2023-09-23 18:15:00,SystemResetWarning,0829.1,5.01,000.00,028.7,027.3,000.0,037.0,030.4,11.7,0000.0,0004.30,0012.12,0003.46
2023-09-23 18:16:00,SystemResetWarning,0829.1,5.00,000.00,028.7,027.4,000.0,037.0,030.4,11.8,0000.0,0004.25,0012.09,0003.44
2023-09-23 18:17:00,SystemResetWarning,0829.1,5.00,000.00,028.8,027.6,000.0,037.0,030.4,11.8,0000.0,0004.24,0012.08,0003.42
2023-09-23 18:18:00,SystemResetWarning,0829.1,5.00,000.00,028.8,027.7,000.0,037.0,030.5,11.9,0000.0,0004.16,0011.83,0003.42
2023-09-23 18:19:00,SystemResetWarning,0829.1,5.00,000.00,028.8,027.8,000.0,037.1,030.5,11.6,0000.0,0004.13,0011.90,0003.42
2023-09-23 18:20:00,SystemResetWarning,0829.1,5.00,000.00,028.9,027.8,000.0,037.1,030.6,11.5,0000.0,0004.13,0011.56,0003.42
2023-09-23 18:21:00,SystemResetWarning,0829.2,4.99,000.00,028.9,027.7,000.0,037.1,030.6,11.4,0000.0,0004.12,0010.70,0003.42
2023-09-23 18:22:00,SystemResetWarning,0829.2,4.99,000.00,028.9,026.0,000.0,037.0,030.3,10.8,0000.0,0004.08,0010.82,0003.40
2023-09-23 18:23:00,SystemResetWarning,0829.2,5.00,000.00,028.7,024.7,000.0,037.0,029.9,11.0,0000.0,0004.10,0011.00,0003.40
2023-09-23 18:24:00,SystemResetWarning,0829.2,5.01,000.00,028.6,024.7,000.0,036.9,029.9,11.3,0000.0,0004.13,0011.21,0003.40
2023-09-23 18:25:00,SystemResetWarning,0829.2,5.01,000.00,028.5,025.0,000.0,036.9,029.8,10.9,0000.0,0004.09,0010.54,0003.39
2023-09-23 18:26:00,SystemResetWarning,0829.1,5.00,000.00,028.5,025.3,000.0,036.9,029.8,11.1,0000.0,0004.12,0010.20,0003.39
2023-09-23 18:27:00,SystemResetWarning,0829.0,4.99,000.00,028.4,025.7,000.0,036.9,029.9,11.1,0000.0,0004.11,0010.03,0003.38
2023-09-23 18:28:00,SystemResetWarning,0829.0,5.00,000.00,028.5,026.1,000.0,036.9,029.9,11.2,0000.0,0004.09,0009.77,0003.39
2023-09-23 18:29:00,SystemResetWarning,0829.0,5.00,000.00,028.5,026.4,000.0,036.9,030.0,11.3,0000.0,0004.15,0010.18,0003.40
2023-09-23 18:30:00,SystemResetWarning,0829.1,5.00,000.00,028.5,026.7,000.0,036.9,030.1,11.1,0000.0,0004.17,0010.35,0003.40
2023-09-23 18:31:00,SystemResetWarning,0829.1,4.99,000.00,028.5,026.9,000.0,036.9,030.1,10.9,0000.7,0004.20,0011.28,0003.39
2023-09-23 18:32:00,SystemResetWarning,0829.1,5.00,000.00,028.6,027.1,000.0,036.9,030.2,10.9,0001.2,0004.18,0013.14,0003.40
2023-09-23 18:33:00,SystemResetWarning,0829.1,4.99,000.00,028.6,027.3,000.0,036.9,030.2,11.0,0000.7,0004.19,0012.42,0003.41
2023-09-23 18:34:00,SystemResetWarning,0829.1,5.01,000.00,028.6,027.4,000.0,036.9,030.3,11.3,0000.0,0004.20,0011.88,0003.42
2023-09-23 18:35:00,SystemResetWarning,0829.1,5.01,000.00,028.7,027.5,000.0,036.9,030.4,10.8,0000.0,0004.18,0011.84,0003.41
2023-09-23 18:36:00,SystemResetWarning,0829.1,4.99,000.00,028.7,027.6,000.0,036.9,030.4,10.8,0000.0,0004.20,0012.57,0003.40
2023-09-23 18:37:00,SystemResetWarning,0829.1,4.99,000.00,028.7,026.8,000.0,036.9,030.3,11.1,0001.3,0004.25,0013.66,0003.40
2023-09-23 18:38:00,SystemResetWarning,0829.1,5.01,000.00,028.6,025.0,000.0,036.9,029.9,10.9,0000.0,0004.31,0014.06,0003.40
2023-09-23 18:39:00,SystemResetWarning,0829.0,5.01,000.00,028.5,024.5,000.0,036.8,029.8,10.8,0002.0,0004.33,0014.34,0003.40
2023-09-23 18:40:00,SystemResetWarning,0829.0,5.01,000.00,028.4,024.7,000.0,036.8,029.7,10.6,0003.3,0004.34,0014.81,0003.38
2023-09-23 18:41:00,SystemResetWarning,0829.1,4.99,000.00,028.3,025.1,000.0,036.8,029.7,10.5,0000.8,0004.33,0014.36,0003.38
2023-09-23 18:42:00,SystemResetWarning,0829.1,4.99,000.00,028.3,025.4,000.0,036.8,029.7,10.6,0000.0,0004.30,0013.38,0003.38
2023-09-23 18:43:00,SystemResetWarning,0829.0,5.00,000.00,028.3,025.8,000.0,036.8,029.8,11.0,0000.0,0004.35,0011.80,0003.38
2023-09-23 18:44:00,SystemResetWarning,0829.0,5.01,000.00,028.3,026.2,000.0,036.8,029.8,11.0,0000.0,0004.34,0011.75,0003.37
2023-09-23 18:45:00,SystemResetWarning,0828.9,4.99,000.00,028.4,026.5,000.0,036.8,029.9,10.6,0001.3,0004.37,0011.93,0003.37
2023-09-23 18:46:00,SystemResetWarning,0828.9,5.00,000.00,028.4,026.7,000.0,036.8,030.0,10.9,0003.3,0004.42,0012.84,0003.37
2023-09-23 18:47:00,SystemResetWarning,0829.0,4.99,000.00,028.4,026.9,000.0,036.8,030.1,10.9,0002.5,0004.41,0012.41,0003.36
2023-09-23 18:48:00,SystemResetWarning,0829.1,4.99,000.00,028.5,027.1,000.0,036.8,030.2,11.2,0002.0,0004.36,0012.13,0003.35
2023-09-23 18:49:00,SystemResetWarning,0829.1,5.01,000.00,028.5,027.3,000.0,036.8,030.2,11.3,0002.2,0004.29,0012.02,0003.35
2023-09-23 18:50:00,SystemResetWarning,0829.0,5.01,000.00,028.5,027.4,000.0,036.8,030.3,11.1,0001.7,0004.25,0011.85,0003.35
2023-09-23 18:51:00,SystemResetWarning,0828.9,4.99,000.00,028.6,027.2,000.0,036.8,030.2,11.0,0001.4,0004.19,0011.17,0003.34
2023-09-23 18:52:00,SystemResetWarning,0828.8,4.99,000.00,028.5,025.5,000.0,036.7,029.8,11.3,0001.6,0004.17,0011.49,0003.34
2023-09-23 18:53:00,SystemResetWarning,0828.9,5.02,000.00,028.4,024.3,000.0,036.7,029.6,11.1,0001.7,0004.15,0011.87,0003.34
2023-09-23 18:54:00,SystemResetWarning,0828.9,5.00,000.00,028.3,024.4,000.0,036.6,029.6,11.1,0001.1,0004.09,0011.77,0003.32
2023-09-23 18:55:00,SystemResetWarning,0828.9,5.00,000.00,028.2,024.7,000.0,036.6,029.5,11.3,0000.5,0004.06,0012.39,0003.30
2023-09-23 18:56:00,SystemResetWarning,0828.9,5.00,000.00,028.2,025.1,000.0,036.6,029.5,11.1,0000.0,0004.01,0012.43,0003.29
2023-09-23 18:57:00,SystemResetWarning,0828.8,5.00,000.00,028.2,025.5,000.0,036.6,029.6,11.5,0000.0,0003.98,0012.62,0003.27
2023-09-23 18:58:00,SystemResetWarning,0828.9,5.00,000.00,028.2,025.9,000.0,036.6,029.7,11.6,0000.0,0004.00,0013.02,0003.27
2023-09-23 18:59:00,SystemResetWarning,0829.0,5.00,000.00,028.2,026.2,000.0,036.6,029.8,11.3,0000.0,0003.97,0013.11,0003.25
